Tracking 18843 objects as of 20-November-2017
HD Live streaming from Space Station
objects crossing your sky now

OSCAR 6

Track OSCAR 6 now!
10-day predictions
OSCAR 6 is classified as:


NORAD ID: 6236
Int'l Code: 1972-082B
Perigee: 1,455.1 km
Apogee: 1,462.0 km
Inclination: 101.7 °
Period: 114.9 minutes
Semi major axis: 7829 km
RCS: 0.279 m2 (medium)
Launch date: October 15, 1972
Source: United States (US)
Launch site: AIR FORCE WESTERN TEST RANGE (AFWTR)
Uplink (MHz): 145.900-146.000
Downlink (MHz): 29.450- 29.550
Beacon (MHz):
Mode: SSB CW
Call sign:
Status: Inactive

aabbcc
Your satellite tracking list
Your tracking list is empty




NASA's NSSDC Master Catalog

Two Line Element Set (TLE):
1 06236U 72082B   17323.85136384 -.00000039  00000-0  34563-4 0  9998
2 06236 101.7343 286.9942 0004421  22.2996  31.7937 12.53140444 62904
Source of the keplerian elements: AFSPC